RH
28 27 26 26 25 25 24 24 23 21 20 19 18 17 16 16 15 15 14 14 14 14 14 14 14 14 14 13 13 13 13 12 12 12 12 12 12 12 12 12 12 12 12 12 13 12 13 12 11 11 11 12 13 14 14 13 13 13 13 13 12 11 10 10 9 9 8 9 10 11 12 14 14 14 15 18 22 30 40 49 60 70 80 87 90 91 92 93
32 31 30 29 28 27 25 24 22 21 20 18 17 17 16 16 17 17 17 17 17 17 17 17 16 16 16 16 15 14 14 13 13 12 13 12 12 12 12 12 12 12 12 13 13 13 13 13 13 12 11 12 12 14 15 14 14 14 14 14 13 13 12 11 10 10 9 9 8 9 9 10 11 12 12 12 13 16 19 23 29 34 42 49 54 56 58 60
36 34 32 30 29 27 25 23 21 20 19 18 17 18 18 18 19 19 20 19 19 19 18 18 17 17 17 17 16 16 15 15 15 14 14 13 13 13 13 13 13 13 13 13 13 13 14 14 13 13 13 13 13 15 16 16 15 15 15 15 15 14 13 13 12 11 10 10 9 8 8 8 9 9 10 10 11 12 12 14 15 16 17 19 21 23 23 25
37 34 32 30 28 26 24 22 20 20 19 19 19 20 21 22 22 22 22 21 20 18 18 17 16 16 16 16 16 16 16 15 16 16 15 15 15 15 14 14 14 14 14 14 14 14 14 14 14 14 14 14 15 16 17 17 17 17 17 16 16 15 15 14 13 12 11 11 10 10 9 8 8 8 9 8 9 9 9 10 10 10 10 11 12 12 13 13
36 33 31 29 27 25 23 21 20 20 20 21 23 24 25 25 24 23 22 20 18 17 16 15 14 15 14 14 15 15 15 15 16 16 16 16 16 16 16 15 15 15 15 15 15 15 15 15 15 15 15 16 16 18 19 19 18 18 18 18 18 17 17 16 14 14 13 12 11 11 10 9 9 8 8 8 8 8 8 8 8 9 8 9 9 10 11 10
35 33 30 27 26 24 22 21 21 21 22 25 27 28 28 26 25 22 20 18 16 16 15 14 14 14 14 14 14 14 14 14 15 15 16 16 16 16 16 16 16 16 16 16 16 16 16 16 17 16 16 17 18 19 20 21 20 21 21 21 21 20 19 18 16 15 14 14 12 12 11 10 10 9 9 8 8 8 8 8 7 8 8 8 8 8 9 8
33 31 29 27 25 23 23 22 23 24 27 29 30 30 28 26 23 21 19 17 16 15 15 14 14 14 14 14 14 14 14 14 15 15 16 16 16 17 16 17 17 17 17 18 18 18 18 18 18 18 18 18 19 21 22 23 22 24 25 24 24 23 21 20 18 17 16 15 14 13 12 11 11 10 10 9 9 9 8 8 8 8 8 8 8 8 8 8
31 29 28 26 24 23 23 24 26 29 31 32 32 30 27 24 22 20 18 17 16 16 16 15 15 15 15 15 15 15 15 15 15 15 16 16 16 17 17 17 17 18 19 20 21 20 20 20 20 20 20 21 22 23 24 25 25 26 28 28 28 26 24 22 20 18 17 16 15 14 13 13 13 11 11 11 10 10 9 9 9 9 9 9 9 8 9 8
29 27 26 26 24 24 26 28 31 34 34 33 31 28 25 23 21 19 18 18 18 17 17 17 16 16 16 16 15 15 16 16 16 16 16 16 17 17 17 18 18 19 20 21 23 23 23 23 23 23 24 25 26 26 27 27 28 29 29 30 30 29 27 24 22 20 18 18 16 15 14 14 13 13 13 12 12 11 11 11 10 11 10 10 10 9 9 9
28 26 26 25 25 27 29 32 35 37 36 33 29 26 24 23 21 20 20 19 19 19 18 18 17 17 16 17 16 16 17 17 17 17 17 17 17 17 18 18 19 20 21 22 24 25 27 28 29 29 30 31 30 30 30 30 30 30 30 31 31 30 29 27 25 22 20 19 18 17 16 15 15 14 14 13 13 12 12 12 12 12 11 11 11 10 11 10
27 26 27 27 28 31 33 36 39 39 36 31 27 26 24 22 21 21 21 20 20 19 19 18 18 17 17 17 17 17 17 17 17 17 17 17 17 17 18 19 19 20 21 22 24 27 30 33 35 35 34 34 33 33 32 31 31 32 31 31 32 31 30 28 27 25 23 22 20 19 18 17 17 16 16 15 14 14 14 14 13 13 12 12 12 12 12 11
28 28 30 31 33 36 37 39 41 40 35 30 27 26 25 23 23 22 21 21 20 20 19 18 18 17 18 18 17 17 17 17 17 17 17 17 17 17 18 18 19 20 21 22 24 27 31 35 38 38 38 37 36 34 33 34 34 34 33 33 33 31 31 30 29 27 25 24 23 22 21 20 19 18 18 17 17 17 16 15 14 14 13 13 13 13 13 12
31 34 35 36 38 40 41 40 41 39 34 29 28 28 25 23 24 23 22 21 21 20 19 19 18 18 18 18 17 17 17 17 17 17 17 17 17 17 18 18 19 20 21 22 24 25 29 33 36 39 39 39 38 36 36 38 37 37 36 35 34 32 32 31 31 29 27 27 25 24 23 21 21 20 19 19 19 18 17 17 15 15 15 14 15 14 14 14
38 41 41 41 43 44 42 41 40 39 34 30 30 29 27 24 24 24 22 22 21 20 20 19 19 18 18 18 18 17 17 17 17 17 17 17 17 17 17 18 18 19 20 22 23 24 27 29 33 36 38 40 40 39 40 40 40 39 38 36 35 33 33 32 32 31 29 28 26 26 24 23 23 21 21 20 19 19 17 17 16 16 17 16 17 17 16 16
46 47 47 47 48 46 43 42 40 38 34 31 32 31 27 25 25 24 22 22 22 21 20 20 20 19 18 18 18 17 17 17 17 17 17 17 17 17 17 18 18 20 20 21 22 23 25 26 29 32 35 37 39 40 40 41 41 40 39 36 35 34 33 32 32 31 30 29 27 26 25 24 23 22 21 21 20 19 18 18 17 18 19 19 19 19 18 18
52 51 53 54 52 47 45 43 40 38 35 34 35 33 29 26 26 25 23 23 22 22 21 20 20 19 19 18 18 17 17 17 17 17 17 17 18 17 18 18 19 20 20 21 21 22 23 24 26 28 30 33 35 37 37 39 39 39 38 37 36 34 33 33 32 30 29 28 27 26 26 24 23 22 22 21 20 19 19 19 19 20 21 21 21 21 21 20
57 57 59 59 54 49 46 42 39 37 37 38 38 35 30 27 27 26 24 24 23 23 22 21 20 19 19 18 18 18 17 18 17 17 18 18 18 18 18 19 19 20 20 21 21 21 22 23 24 25 27 29 30 32 33 35 36 36 36 35 35 34 33 32 30 30 28 27 27 26 25 24 24 23 21 21 20 19 20 20 21 22 23 22 23 23 22 22
65 66 65 62 57 52 46 41 39 38 39 41 40 36 32 29 29 28 26 25 24 24 23 22 21 19 19 19 18 18 18 17 17 17 18 18 19 19 19 20 20 20 20 21 21 21 21 22 23 23 25 26 27 28 29 30 32 32 32 32 33 32 31 31 29 28 27 26 26 25 25 25 24 23 21 21 20 21 22 23 23 23 23 22 22 24 24 24
76 75 69 63 60 54 46 41 40 40 42 44 42 38 34 31 31 30 27 26 25 24 23 21 21 20 19 19 18 18 18 17 17 17 18 18 19 20 20 21 21 21 21 21 21 22 22 22 22 23 23 24 24 25 26 27 28 28 29 30 30 30 29 29 27 27 26 25 25 25 26 25 24 23 21 22 23 25 26 25 25 23 23 23 24 27 27 28
89 83 71 67 65 57 47 42 41 43 44 45 45 41 36 33 34 33 29 27 26 25 24 22 21 20 20 19 18 18 18 17 17 18 18 19 20 20 21 21 21 22 22 22 22 22 22 22 22 22 22 23 23 24 25 26 26 27 28 28 29 29 28 26 25 25 25 25 25 25 26 25 25 24 24 27 28 28 28 26 25 24 24 24 28 30 29 31
96 90 76 69 68 60 49 43 44 46 46 47 46 43 39 36 36 35 30 28 27 26 24 23 21 21 20 20 19 18 18 18 17 18 18 19 20 20 21 22 22 22 23 23 23 23 23 23 23 22 23 24 24 25 25 25 26 26 27 28 28 28 27 25 24 25 25 25 25 25 25 25 26 26 27 28 29 29 27 27 26 25 25 25 27 28 27 30
96 94 80 70 69 64 51 45 47 49 49 48 48 46 42 38 38 37 33 29 28 27 25 24 22 21 21 20 19 19 18 18 18 18 18 19 20 21 22 22 23 23 23 23 23 23 23 23 23 24 25 25 25 25 25 25 26 27 27 28 28 27 26 24 23 25 26 27 27 25 25 25 26 28 28 28 28 28 26 26 26 25 25 25 25 26 26 26
89 89 77 69 70 66 52 45 49 53 53 50 48 48 45 41 41 40 36 32 30 28 26 25 23 22 21 20 20 19 18 18 18 18 19 19 21 22 22 22 23 23 23 23 23 22 22 23 25 27 27 27 27 26 26 27 27 28 28 28 28 27 26 25 25 26 27 28 27 26 26 26 27 27 27 28 27 27 27 26 26 26 25 25 25 25 25 24
76 78 71 67 69 67 54 46 50 55 56 52 49 49 47 44 42 42 39 34 32 30 27 26 25 23 22 21 20 19 19 18 19 19 19 20 20 21 22 23 23 23 23 22 22 22 23 24 26 27 28 28 29 29 29 29 29 29 29 28 28 27 26 26 27 28 28 29 28 27 27 26 27 28 28 28 27 27 28 28 28 29 29 29 29 28 28 29
64 69 68 65 66 64 53 47 52 57 58 55 50 48 48 47 44 44 44 38 34 32 29 28 27 25 22 21 20 20 20 19 19 19 19 20 20 21 23 23 24 24 23 23 22 22 23 25 26 27 29 30 31 31 31 31 31 30 30 29 28 28 28 28 29 30 29 29 29 28 28 28 28 28 29 29 30 31 32 35 38 40 41 41 40 39 40 40
59 63 62 59 59 57 52 50 53 59 61 58 53 48 48 49 47 46 46 43 37 34 32 30 29 27 24 22 21 21 21 21 20 20 20 20 21 22 23 24 24 24 23 23 23 23 24 24 25 27 29 30 31 32 32 32 32 32 31 30 30 30 30 30 31 31 30 31 30 29 30 32 32 32 35 38 41 44 46 49 51 54 57 55 53 53 55 54
58 59 56 51 51 52 52 54 55 59 63 61 55 50 48 50 49 47 48 47 41 37 35 32 32 31 26 23 22 22 22 22 22 22 21 21 21 22 24 24 25 25 25 24 24 24 24 24 25 26 28 30 32 32 33 33 33 33 32 31 31 31 31 31 33 35 35 36 35 35 39 46 49 49 52 55 60 63 64 66 63 62 65 65 67 68 70 70
58 58 54 48 46 48 52 56 60 62 64 63 58 52 49 50 50 48 49 50 46 42 39 35 34 33 30 25 22 22 22 23 25 24 22 23 23 24 25 26 25 26 26 26 26 26 25 26 26 27 29 30 31 32 33 34 33 33 32 32 32 31 32 34 38 42 44 48 53 52 58 74 79 73 71 75 81 82 80 80 77 74 75 76 78 79 83 86
59 58 55 48 44 47 52 57 65 70 68 64 60 56 51 50 51 49 49 52 51 47 43 39 36 35 34 29 23 22 22 24 28 27 26 28 27 26 26 26 26 27 28 28 28 28 28 29 30 31 32 32 32 33 33 33 34 34 32 33 34 35 36 39 48 55 55 67 81 77 79 98 102 91 87 91 95 97 96 95 91 88 88 85 80 81 87 91
59 58 55 48 45 50 55 58 67 76 73 63 60 57 52 51 51 50 52 56 56 52 47 42 39 37 36 33 27 23 22 25 29 29 32 34 30 28 27 27 29 29 30 29 30 31 31 32 33 34 34 34 32 32 32 33 34 34 34 36 38 38 40 46 57 64 65 82 100 96 93 105 108 100 94 95 99 103 102 99 95 91 90 87 83 84 85 83
60 58 54 48 47 52 58 62 69 76 73 64 59 57 53 52 51 53 61 62 57 54 51 46 43 39 37 35 31 26 23 25 28 30 36 39 34 32 30 30 32 33 33 32 33 34 34 36 37 36 35 34 33 32 32 33 34 35 38 39 40 41 45 55 64 68 78 98 107 100 100 106 108 104 97 95 100 102 99 98 96 94 92 91 91 90 85 82
59 57 53 51 52 57 63 68 73 75 73 68 63 59 57 54 52 60 71 67 56 55 55 50 47 42 39 37 34 31 26 24 27 31 39 44 40 35 34 32 33 34 34 32 32 34 35 36 36 35 35 34 35 36 36 38 38 41 43 42 45 48 50 59 68 77 94 109 105 99 103 109 110 106 99 99 103 102 102 100 99 100 98 96 96 94 90 90
57 54 55 60 64 65 68 73 75 75 73 69 65 64 61 55 60 73 78 67 56 57 57 53 50 45 41 38 36 35 30 26 26 29 40 50 47 39 37 37 36 36 36 34 33 34 36 37 37 37 37 37 39 41 43 45 44 44 44 44 49 53 53 60 73 87 99 103 100 102 107 109 110 107 102 102 104 103 105 101 98 100 100 98 97 95 94 96
57 59 66 74 76 74 73 74 75 74 70 64 62 63 60 59 70 82 78 64 56 56 58 57 54 50 44 41 38 37 36 31 27 26 36 51 55 49 44 42 43 43 40 37 36 36 37 40 40 40 41 41 42 43 44 46 44 42 42 45 51 54 56 63 71 80 87 86 87 95 103 107 109 108 106 106 106 105 104 101 98 98 97 95 94 92 91 94
67 71 74 77 77 73 70 69 68 68 64 59 55 55 58 65 79 83 72 59 53 54 61 62 58 54 48 44 40 39 39 37 32 27 29 44 60 63 55 48 45 46 45 43 39 39 41 42 41 40 40 40 40 39 39 43 42 40 41 44 47 50 52 55 57 61 66 68 69 76 88 100 107 107 105 105 106 106 105 103 100 96 91 88 85 84 86 88
69 68 67 67 67 64 61 60 59 59 58 55 50 49 58 70 80 78 67 57 52 55 63 65 62 59 53 49 45 42 40 39 38 32 27 35 53 67 68 60 51 46 47 49 46 43 44 45 43 41 40 39 39 38 38 41 41 38 39 43 44 45 45 45 46 48 50 54 56 60 70 86 99 105 105 106 107 105 103 103 101 94 88 83 80 81 85 89
59 58 57 56 57 56 55 54 53 54 54 52 49 51 61 70 75 74 68 60 53 54 61 64 65 64 59 55 50 45 43 40 40 38 33 32 41 61 76 77 69 58 51 51 50 47 46 46 44 43 43 42 42 42 41 43 42 39 41 43 42 42 41 42 43 43 45 49 51 53 61 73 86 97 103 107 108 105 103 103 101 94 88 86 88 89 92 96
51 50 49 49 49 49 49 48 48 48 48 48 49 52 59 64 69 73 71 64 55 53 57 61 65 67 65 61 54 49 47 44 41 41 40 34 34 52 74 81 84 81 70 60 53 50 50 47 44 45 48 46 44 45 44 44 44 42 42 43 42 40 40 43 43 45 49 51 50 53 60 70 80 91 99 100 101 103 104 103 101 97 94 94 97 98 97 100
50 49 49 49 49 48 48 47 47 46 45 47 50 51 53 56 61 67 69 65 57 52 52 56 63 69 70 67 60 55 51 48 47 44 44 40 34 43 62 74 86 93 90 82 70 62 60 56 50 49 51 52 50 48 46 46 49 48 44 44 46 45 45 46 46 49 53 55 57 60 65 77 90 96 98 94 94 99 101 101 103 102 99 98 98 99 98 99
58 57 56 54 53 54 54 52 50 49 49 52 53 52 52 51 52 57 62 63 60 53 51 54 62 68 71 71 67 62 56 53 53 48 44 45 41 40 48 63 83 95 97 98 95 87 80 73 62 56 61 64 61 61 60 58 60 60 56 55 56 59 58 55 54 56 58 61 66 70 75 89 99 98 96 94 95 99 97 99 107 108 105 104 101 100 101 102
58 57 57 54 53 53 53 53 53 52 51 54 55 55 56 54 51 52 55 59 60 57 54 55 60 67 74 76 72 69 64 59 58 53 46 45 46 44 42 52 78 99 101 98 104 107 103 98 87 75 77 78 72 73 75 72 69 68 70 71 68 69 71 70 68 71 77 81 84 88 94 102 102 94 91 93 96 100 100 99 102 104 107 110 109 106 105 106
49 48 47 46 46 45 45 47 48 47 48 50 52 55 57 57 55 53 54 56 57 58 58 57 59 68 79 83 79 75 73 67 63 59 53 48 46 46 44 44 61 90 104 99 102 108 106 108 106 95 94 93 86 83 79 75 75 73 75 81 79 79 84 87 88 92 99 101 98 102 107 106 104 97 91 94 98 101 103 103 100 99 101 106 107 106 104 104
38 37 36 36 37 37 37 38 39 41 41 43 46 48 51 54 55 54 55 56 56 58 61 60 59 66 78 87 86 81 78 75 70 65 59 52 46 45 47 45 45 65 90 97 99 104 103 106 107 103 103 104 101 98 89 82 82 77 77 87 93 93 94 96 100 103 107 106 102 105 106 103 105 104 98 99 102 103 107 110 107 99 98 102 103 103 101 99
30 29 28 27 28 28 29 30 31 33 35 37 39 41 43 47 50 51 54 57 58 60 63 63 62 64 73 86 91 87 82 80 77 71 63 57 52 47 47 50 46 47 63 81 93 101 101 101 104 103 103 103 102 102 99 94 93 92 93 99 104 106 104 102 104 105 106 106 106 107 106 103 105 106 104 104 103 104 107 110 105 96 96 103 104 102 100 98
28 26 25 23 23 23 23 23 23 25 27 30 33 35 38 41 43 46 49 53 59 63 64 66 66 65 69 79 88 91 89 86 81 76 70 62 59 54 49 50 51 48 47 58 79 96 98 97 101 103 101 101 100 101 100 99 100 102 105 107 107 107 107 106 104 104 104 104 106 108 108 106 106 104 103 100 98 100 101 101 99 93 95 103 103 101 99 97
30 28 27 25 23 21 21 21 20 20 21 23 26 29 32 36 38 41 43 47 54 62 67 69 69 67 66 70 79 87 91 91 86 80 75 68 64 62 57 50 51 54 50 47 58 81 97 101 102 103 102 102 101 100 100 100 99 100 103 105 103 101 103 105 104 103 102 101 103 106 105 106 105 101 100 98 97 97 95 94 92 89 89 92 92 92 91 90
32 30 29 28 25 22 20 19 19 19 19 20 21 23 26 30 34 37 39 42 47 55 63 68 69 69 67 67 72 80 87 92 91 84 79 74 69 67 65 59 52 52 56 53 50 60 81 94 96 98 99 100 102 102 101 100 99 100 101 102 101 100 102 103 104 104 102 102 105 104 104 108 107 103 102 100 97 95 93 91 90 88 88 88 89 89 88 87
32 30 29 28 26 23 20 18 18 18 19 19 20 20 21 23 28 32 35 38 41 46 54 61 66 69 69 67 69 73 81 89 94 91 85 81 77 71 69 68 61 55 57 62 58 53 61 75 84 90 92 91 93 98 101 102 102 100 100 101 101 100 99 99 102 103 101 102 104 102 103 105 105 106 106 102 99 99 99 99 97 95 95 93 91 89 86 85
31 28 27 25 25 23 20 18 17 18 18 19 19 19 20 21 23 27 30 34 38 41 45 52 59 64 67 68 69 71 77 83 91 96 93 88 83 77 73 72 71 65 61 64 68 63 57 59 67 79 88 88 84 83 88 96 102 102 101 101 100 98 94 93 97 101 102 102 102 100 101 100 99 105 106 101 100 99 97 98 98 95 93 88 85 85 83 80
33 29 26 24 23 21 18 16 15 16 16 17 19 20 21 23 23 24 27 31 35 39 42 45 51 56 62 66 69 71 74 79 87 94 97 94 89 84 80 78 79 77 71 66 69 71 67 60 58 63 75 82 79 73 71 76 88 99 102 101 100 99 97 96 98 101 103 103 101 99 101 99 97 100 100 95 94 91 88 90 90 88 86 83 79 76 73 72
35 31 28 25 22 17 15 14 13 14 15 16 18 19 21 23 24 25 27 29 32 36 41 44 47 51 55 60 66 69 71 77 84 89 96 99 96 93 90 86 84 84 81 75 71 71 69 66 63 61 60 63 64 62 61 60 65 78 90 96 97 98 99 101 103 104 104 102 101 100 99 96 93 93 93 92 91 89 88 87 86 84 81 78 76 76 77 79
35 32 29 26 21 15 14 14 13 14 15 15 16 18 20 22 24 26 27 29 32 34 38 42 45 48 51 54 60 65 68 73 79 85 92 97 99 99 99 96 94 91 89 85 81 76 71 68 69 69 65 61 55 52 53 52 48 52 65 78 85 87 90 93 97 99 99 98 99 101 101 100 97 94 93 92 91 90 89 87 84 83 82 82 86 93 99 100
Wind_Speed
69 69 69 69 69 69 69 69 69 70 70 70 71 71 71 71 71 71 71 72 72 72 72 73 73 74 76 77 78 79 80 80 80 80 80 80 80 80 79 78 78 77 77 76 77 77 78 79 79 80 80 81 82 83 84 85 85 86 86 87 87 87 86 85 85 85 86 87 88 89 91 91 91 93 94 95 96 97 98 99 101 102 102 102 102 102 102 102
66 66 66 67 67 67 67 67 68 68 68 68 68 68 68 68 68 68 68 68 68 69 69 69 70 71 72 73 75 76 77 77 78 78 78 79 79 78 78 77 77 76 76 76 76 76 76 77 78 78 78 79 80 81 82 83 84 84 85 86 86 86 85 84 83 83 83 84 85 86 88 89 90 91 92 93 93 93 94 96 97 99 100 101 101 102 103 103
64 64 64 65 65 65 65 66 66 66 66 66 66 65 65 64 64 64 64 65 65 66 66 66 67 68 68 70 71 72 73 74 75 75 76 77 77 76 76 76 75 75 75 75 75 75 75 76 76 76 76 77 77 78 79 81 82 83 84 85 84 84 83 82 81 80 81 81 82 83 84 85 86 88 89 91 92 92 93 93 94 95 97 98 98 99 100 101
63 63 63 63 63 64 64 64 64 64 64 63 62 62 61 61 61 61 61 62 63 63 64 64 65 66 66 67 68 69 70 71 71 72 74 74 74 74 74 74 73 73 73 73 73 73 73 74 74 74 74 75 75 76 77 78 79 81 82 83 82 82 81 80 79 79 79 79 79 80 81 82 83 84 85 87 89 90 92 93 93 93 94 94 95 96 96 96
62 62 62 62 62 62 63 62 62 61 60 60 59 58 58 58 58 59 59 60 61 62 63 63 64 64 65 66 66 67 67 68 68 70 71 72 72 73 72 72 71 71 71 71 71 71 71 72 73 72 72 72 73 74 74 76 77 79 80 80 80 79 78 77 77 76 77 77 77 77 78 78 79 80 81 83 84 85 87 88 88 89 90 91 92 93 92 91
61 61 61 61 61 61 61 61 60 59 57 56 56 56 56 56 57 57 58 59 60 61 61 62 62 63 63 64 64 65 65 65 66 68 69 70 71 71 71 70 69 69 69 69 69 69 70 70 71 70 70 70 71 71 72 74 75 76 77 77 77 76 75 75 74 74 75 75 75 75 76 76 76 77 77 78 80 80 81 82 83 84 85 86 87 86 86 85
60 60 60 60 60 59 59 58 57 56 55 54 54 54 54 55 56 57 57 58 58 59 60 60 61 61 61 62 62 63 63 63 65 67 68 69 69 70 70 69 68 67 67 66 67 67 68 68 68 69 69 69 69 70 70 72 73 74 74 74 74 74 73 72 72 73 73 73 73 73 74 74 74 74 74 74 75 76 76 77 77 78 79 80 80 79 79 78
60 60 59 59 58 57 56 55 55 54 53 52 52 53 53 54 55 55 56 56 57 57 57 58 59 59 60 60 61 61 61 62 64 65 66 67 68 68 68 68 67 66 65 65 65 66 66 66 67 67 67 67 68 68 68 70 71 72 72 72 72 72 71 70 71 72 71 71 71 71 72 72 71 72 72 72 72 72 73 73 73 74 75 75 74 74 73 72
60 59 58 57 56 55 54 53 52 52 51 51 51 51 52 52 53 54 54 54 54 55 56 57 57 58 59 59 60 59 59 61 62 63 65 66 66 67 67 67 66 66 65 64 64 64 64 64 65 65 65 65 66 66 67 68 69 70 70 69 70 70 69 69 70 71 70 69 69 69 69 68 69 69 70 70 70 70 70 71 71 71 71 71 71 70 69 69
58 58 57 56 54 53 52 51 50 50 50 50 50 50 50 51 51 52 52 52 53 53 54 55 56 57 57 57 57 57 58 59 60 61 63 64 65 65 66 66 66 65 64 64 63 62 62 62 63 64 64 65 65 65 66 67 68 70 69 68 69 69 68 68 69 69 68 67 67 67 66 66 66 67 68 67 67 68 68 69 69 69 69 69 69 68 68 68
57 56 55 54 52 51 50 49 49 49 48 48 48 49 49 49 50 50 50 51 51 52 53 53 54 55 55 55 54 55 56 57 58 59 60 62 63 63 64 65 65 65 64 63 62 61 61 61 62 64 64 64 65 65 66 66 67 68 68 68 69 68 67 67 68 67 67 66 65 65 65 64 65 66 66 66 66 66 66 67 67 68 68 67 67 67 67 67
55 54 52 51 50 49 48 48 47 47 47 47 47 47 47 47 48 48 49 49 49 50 51 52 52 52 52 52 52 53 53 54 55 56 58 60 61 62 63 64 64 64 64 63 62 62 61 62 63 63 63 64 64 64 64 65 66 67 67 67 68 67 66 65 66 65 65 64 64 64 64 63 64 65 65 65 65 65 66 67 67 67 67 66 66 66 66 66
52 51 50 49 48 48 47 47 46 46 46 45 46 46 46 46 46 47 47 47 47 48 49 50 50 50 50 50 50 51 51 51 53 54 56 58 59 60 61 62 63 63 63 63 63 63 62 62 63 62 62 63 62 62 62 63 65 66 66 66 66 66 65 64 64 64 63 63 62 62 62 63 64 64 64 64 65 66 66 67 67 67 66 66 66 66 65 65
50 49 48 47 47 46 46 46 45 45 45 44 44 45 45 45 45 45 45 45 45 46 47 48 48 48 48 48 48 48 48 49 51 53 55 56 57 58 59 60 60 61 63 64 64 63 63 63 62 61 61 61 61 61 61 63 64 65 65 65 65 65 64 63 63 63 63 62 62 61 62 64 64 64 65 65 66 67 67 67 67 66 66 66 66 65 65 64
49 48 47 46 45 45 45 45 45 44 44 43 43 44 44 44 43 44 43 43 43 44 45 45 46 46 45 46 46 46 46 48 49 51 53 54 55 56 57 58 58 60 62 63 63 63 63 63 62 61 61 60 60 60 60 62 63 64 65 64 64 64 63 63 63 62 62 61 61 61 62 65 64 64 65 66 66 66 67 67 66 66 65 65 65 65 64 63
47 46 46 45 44 44 44 44 44 43 43 43 42 43 43 42 42 42 42 42 41 42 43 43 44 44 44 44 44 44 45 46 48 50 51 52 53 54 55 55 56 58 60 61 62 63 63 63 62 62 61 60 60 59 60 61 62 63 64 63 63 63 62 62 62 61 60 60 61 61 63 65 65 65 66 65 65 66 66 66 65 65 65 65 65 64 63 62
46 45 44 44 43 43 44 44 43 42 42 42 42 42 41 41 41 40 40 40 39 40 41 41 42 42 42 42 43 43 44 46 47 48 49 50 51 52 52 53 54 56 58 59 61 62 62 62 62 61 61 60 60 59 59 60 61 62 63 62 62 62 62 61 60 59 59 59 60 61 63 65 65 65 65 64 64 65 66 65 65 65 65 64 64 63 62 61
45 44 43 43 43 43 43 43 42 41 41 41 41 41 40 40 39 39 39 38 38 38 39 40 40 40 40 41 41 42 43 45 45 46 48 49 49 50 50 51 53 54 55 57 58 59 60 60 61 61 60 60 60 60 60 60 61 61 61 60 61 61 61 61 59 58 59 59 60 61 62 64 64 65 64 63 63 63 64 64 63 63 63 63 62 62 60 59
45 44 43 42 42 42 42 42 42 41 40 40 40 40 39 38 38 37 37 37 36 37 38 39 39 38 39 40 40 41 43 44 45 45 47 47 47 48 49 50 51 52 53 54 55 57 58 58 59 60 60 60 60 60 60 59 60 60 60 60 61 61 61 60 58 58 58 59 59 60 61 63 64 63 61 60 61 61 62 63 62 62 61 60 59 59 58 57
45 44 43 42 42 42 42 42 41 40 39 39 39 38 37 37 37 37 36 36 36 36 37 37 37 37 38 38 39 40 42 43 43 44 45 46 46 47 48 49 50 51 52 53 54 55 55 56 57 58 58 58 58 58 58 58 59 60 60 60 61 61 61 59 58 58 58 58 58 59 60 62 62 61 59 58 60 60 61 61 60 60 59 57 57 57 56 56
45 44 44 43 43 43 42 41 41 40 39 39 39 37 36 36 36 36 36 34 35 36 36 36 35 35 36 37 38 39 41 42 43 43 44 45 46 47 48 48 49 50 50 51 52 53 53 54 54 54 54 54 56 57 57 58 58 59 60 60 60 61 60 58 57 57 58 58 58 59 59 59 59 59 58 58 59 60 59 59 59 59 57 57 57 56 56 55
46 45 45 44 43 43 42 41 41 41 40 39 38 37 35 35 36 36 35 34 34 35 35 34 34 34 35 37 37 38 39 41 42 43 43 44 45 46 47 48 48 49 50 51 52 52 52 51 51 51 52 53 54 55 55 56 56 58 58 59 59 60 59 57 56 56 56 57 58 58 57 57 57 58 58 58 59 59 59 59 59 58 57 56 56 56 55 55
46 46 46 45 44 44 43 41 41 41 40 39 38 36 35 34 35 35 35 33 33 34 34 33 32 33 35 36 36 37 38 40 41 42 43 43 44 45 46 47 48 49 50 51 51 51 50 49 49 50 51 51 52 52 53 53 54 56 57 57 58 58 57 55 54 55 55 56 57 56 56 55 56 57 57 58 58 58 58 58 57 56 56 56 56 55 55 53
46 47 46 46 45 45 44 42 41 41 40 39 38 36 34 34 35 35 35 33 32 33 33 31 31 32 34 36 36 36 37 38 40 42 42 43 44 45 45 46 47 49 50 50 50 49 48 48 49 49 49 49 50 50 51 52 53 54 55 56 56 55 55 53 53 54 55 55 55 54 54 54 54 55 56 56 56 56 56 55 55 54 54 54 54 53 52 51
46 46 47 46 45 45 45 42 41 41 40 40 38 36 34 34 35 34 34 33 31 32 33 30 29 32 34 35 34 34 35 37 39 41 41 42 42 43 44 46 47 48 49 49 48 48 48 49 49 48 48 48 48 49 49 50 51 52 53 54 54 53 52 51 51 52 53 53 53 52 51 51 52 53 53 54 54 53 53 52 52 51 51 51 51 50 49 48
46 46 46 46 46 45 45 43 42 40 40 40 39 36 34 34 36 35 34 34 32 31 32 30 29 31 33 34 34 33 34 36 38 39 40 41 41 43 44 46 47 47 47 47 48 48 48 49 48 47 48 48 48 48 49 49 50 51 51 51 51 50 49 49 49 50 50 50 50 48 48 49 50 50 50 51 50 50 50 49 49 48 48 48 47 46 45 45
47 46 45 46 46 45 44 44 43 40 40 41 40 37 35 35 36 35 34 35 32 30 31 30 29 30 32 33 33 33 33 35 36 38 39 40 41 42 44 45 46 46 47 47 47 48 48 48 47 47 47 47 48 47 48 48 48 49 49 49 48 48 47 46 46 46 46 46 46 45 44 45 46 47 47 47 46 46 46 46 46 46 46 45 44 43 42 42
47 46 46 46 46 46 45 44 43 41 40 41 40 38 36 35 36 36 35 35 33 31 31 30 29 29 31 33 33 32 33 33 35 37 38 39 41 42 44 46 46 46 46 46 47 47 47 47 47 47 48 48 48 47 47 47 47 48 47 47 46 46 45 44 44 44 44 43 43 42 41 41 43 43 43 43 42 41 42 44 43 43 44 42 41 41 40 40
47 47 47 46 46 46 46 44 43 42 42 41 40 39 37 35 37 37 36 36 35 33 31 30 30 30 31 32 32 33 33 32 34 35 36 39 41 43 44 45 45 45 46 47 47 47 47 47 48 48 48 48 48 48 48 47 47 47 46 46 45 44 43 43 42 42 42 40 40 40 37 38 41 41 40 40 39 36 37 38 39 40 41 40 39 39 39 38
48 48 48 47 47 47 46 44 43 43 44 42 41 40 38 36 37 37 37 38 37 34 32 31 31 31 31 32 32 32 32 32 34 34 35 38 42 43 44 44 44 45 47 47 47 47 48 48 48 49 49 49 48 48 47 47 47 46 46 45 45 44 43 42 42 42 40 38 39 38 35 37 41 42 40 39 38 38 38 38 38 38 39 38 38 37 38 38
48 49 49 49 48 47 46 45 44 44 45 43 42 41 39 37 37 37 40 42 39 35 33 32 31 32 32 32 32 32 32 33 33 34 35 38 41 42 43 43 44 46 47 47 47 48 48 48 49 49 49 49 48 48 47 47 47 46 46 45 44 43 42 42 41 40 38 39 40 38 35 38 44 44 41 40 39 40 40 40 40 40 39 39 38 38 38 39
48 49 49 49 49 47 46 46 46 45 45 44 43 41 40 38 36 38 43 45 40 36 35 33 33 33 32 33 32 31 32 33 34 34 34 37 40 41 43 44 45 46 47 48 48 48 49 49 50 49 49 49 48 48 47 47 47 46 46 45 44 43 42 41 41 40 40 42 41 38 37 40 46 46 42 41 41 41 42 42 41 41 41 40 39 39 39 39
48 48 49 50 49 48 47 46 47 47 45 45 43 42 41 37 36 41 47 46 41 38 37 35 34 33 33 33 32 31 32 32 34 34 34 36 39 40 41 43 44 46 47 47 47 47 48 49 49 49 49 49 49 48 48 48 48 47 46 45 44 44 43 42 42 42 43 45 43 40 40 42 46 46 43 43 44 44 44 43 42 42 42 41 41 40 40 40
48 49 49 49 50 49 47 47 48 48 47 46 44 43 41 37 39 47 50 46 42 39 38 37 35 34 34 33 32 32 31 32 33 35 35 36 37 38 40 42 44 46 47 47 47 47 47 49 50 50 49 50 50 49 49 49 49 48 46 45 45 45 45 44 45 45 47 47 45 43 42 43 46 47 45 45 45 45 45 44 44 43 43 42 41 41 40 40
48 49 49 49 50 50 49 49 49 49 49 47 45 43 40 39 44 51 50 47 43 40 39 39 37 36 35 34 33 32 32 32 33 34 35 35 36 37 39 41 43 45 46 46 46 46 47 49 50 50 50 50 50 50 49 49 50 48 47 47 47 47 47 47 47 47 48 48 47 45 44 45 48 48 47 47 47 46 46 45 45 44 43 43 42 41 40 40
49 49 49 49 50 51 51 50 50 50 50 49 47 42 40 44 49 52 51 48 44 41 41 41 39 37 36 34 34 33 32 33 33 33 34 35 36 37 38 39 41 43 45 46 47 47 48 49 50 49 49 49 49 49 49 49 50 49 47 48 49 49 49 48 48 48 49 49 48 46 46 47 48 49 48 48 48 47 47 46 46 45 44 43 42 41 40 40
49 50 50 50 51 51 52 52 51 50 50 49 47 43 44 48 50 51 51 48 45 43 43 42 40 38 37 36 35 34 33 33 33 33 34 35 37 37 37 38 39 40 43 45 47 47 48 49 49 49 49 49 49 49 48 49 49 48 48 49 50 50 49 48 48 49 49 50 49 48 48 49 49 50 49 49 48 48 47 47 47 46 45 43 42 41 41 40
50 51 51 51 52 52 53 53 52 51 51 49 47 45 48 50 51 52 52 50 47 44 44 42 40 39 38 38 37 34 34 33 33 33 34 35 37 38 38 38 37 38 40 43 45 46 47 49 48 48 48 49 49 49 49 49 49 49 49 50 50 49 49 49 49 49 49 50 50 49 49 49 50 51 50 50 49 49 49 48 48 47 45 44 43 42 41 40
51 51 51 52 52 52 53 53 53 52 51 49 48 49 51 52 53 53 52 51 48 46 44 42 41 40 40 39 38 36 35 34 32 34 36 35 36 38 39 39 38 38 39 40 42 44 45 47 48 48 48 48 48 48 49 48 49 49 49 49 49 48 49 49 49 49 49 49 49 49 48 48 50 51 51 50 49 49 49 48 47 47 46 44 43 42 41 40
51 51 51 51 51 51 53 53 52 52 50 49 50 52 53 54 54 53 52 51 49 46 44 42 42 42 41 41 40 37 36 34 34 35 36 36 37 38 40 40 39 39 39 39 39 41 42 44 46 46 46 47 48 47 48 48 48 48 48 48 48 48 49 49 49 49 49 49 49 49 48 48 51 51 51 50 49 48 47 45 44 45 45 44 44 43 42 41
50 50 51 52 51 51 52 52 52 52 50 50 51 52 53 55 55 54 53 52 50 47 45 43 43 42 42 42 41 39 37 36 36 37 36 36 37 38 40 41 41 41 41 40 39 39 40 41 43 43 44 45 46 46 47 48 48 48 48 48 49 49 49 49 48 48 48 48 48 47 47 49 51 52 51 51 50 48 46 43 42 42 43 43 44 44 44 44
51 51 51 52 52 52 52 53 53 53 51 50 51 52 54 56 56 54 53 52 51 49 46 44 44 43 44 44 43 41 40 39 39 38 38 38 39 39 40 42 43 44 43 42 41 40 39 40 41 41 42 43 43 45 46 47 47 48 48 48 48 48 48 48 47 47 47 47 47 47 48 49 51 52 51 51 50 50 48 45 42 42 44 45 46 46 46 46
51 52 51 51 53 53 53 53 54 54 53 52 52 54 55 56 56 55 53 53 52 50 48 47 46 45 45 46 45 43 42 42 41 40 40 40 39 39 39 41 43 45 46 45 44 42 41 41 40 40 40 41 42 44 45 45 46 46 46 46 46 47 47 47 47 48 48 48 47 48 49 50 51 52 52 51 51 50 49 47 44 43 46 48 48 48 47 47
48 49 49 49 49 51 52 53 53 54 54 54 54 55 55 56 56 55 54 53 52 51 50 49 48 47 47 47 47 45 44 44 43 42 41 41 40 39 39 41 43 44 47 47 46 46 45 44 42 42 42 42 43 44 44 43 44 44 44 45 45 45 45 45 46 47 48 47 48 50 50 50 53 53 52 52 52 52 49 47 46 46 48 50 49 49 48 48
43 43 43 44 44 45 47 49 50 51 52 53 55 55 56 57 57 56 54 53 52 52 52 51 51 50 49 49 48 47 46 46 46 44 43 42 40 39 40 41 42 43 45 47 48 49 48 47 45 45 45 45 46 45 45 45 45 45 44 45 45 45 45 45 46 47 48 47 48 50 51 52 54 54 54 54 53 53 51 49 49 49 50 52 52 51 50 50
38 38 38 39 39 39 40 43 45 46 47 49 52 54 56 57 58 58 56 53 53 53 53 54 53 53 52 51 50 49 48 48 47 46 45 43 42 41 41 42 42 43 43 45 48 50 50 50 49 49 49 49 48 48 48 48 47 46 45 46 46 45 45 45 46 47 48 48 49 50 51 53 54 54 54 54 53 53 53 52 52 53 53 54 53 52 51 51
34 34 34 35 35 36 36 37 39 40 42 43 46 49 52 55 58 59 57 55 54 54 55 55 55 55 54 53 52 51 50 49 49 48 46 45 43 43 42 42 42 42 43 44 47 50 52 53 53 53 53 52 51 51 50 50 49 48 48 49 48 47 47 47 48 48 48 48 50 51 51 52 54 54 54 54 54 54 54 54 54 54 54 54 54 53 53 52
31 30 30 31 32 32 32 32 33 35 36 38 41 44 47 50 54 57 58 57 56 56 56 56 56 56 56 55 54 52 51 51 50 49 47 46 45 44 44 43 43 42 43 44 46 48 51 54 55 55 55 55 54 54 53 52 52 52 52 52 52 52 51 50 50 50 50 51 52 52 52 53 54 55 55 55 55 54 54 55 55 55 55 55 55 54 54 53
29 27 26 26 27 28 29 28 28 29 31 33 36 39 41 44 48 52 55 57 57 57 57 57 57 57 56 56 55 54 53 52 51 50 49 48 47 46 45 44 43 43 43 45 47 48 49 51 54 56 57 58 57 57 57 56 55 55 55 55 56 56 54 53 53 53 53 54 54 54 55 55 56 56 57 57 57 57 57 57 57 57 57 56 56 55 54 54
29 27 25 24 23 23 24 24 24 25 26 28 30 33 36 40 42 45 49 52 55 57 58 58 58 58 57 56 55 55 54 53 52 52 51 50 49 48 47 46 45 45 45 46 47 49 50 50 52 55 57 59 59 59 59 58 58 58 58 58 58 58 57 56 56 56 56 57 57 57 58 58 58 59 59 59 59 59 59 59 59 58 58 57 57 56 55 55
28 27 25 23 20 19 20 20 20 20 21 24 27 30 33 36 38 40 43 47 51 54 57 59 59 59 58 57 56 56 55 54 54 53 52 52 51 50 49 48 48 48 48 47 48 49 50 51 51 53 55 58 59 59 59 60 60 60 61 61 60 60 59 58 58 59 59 59 59 60 60 60 60 60 61 61 61 61 60 60 60 59 59 58 57 56 57 58
25 24 23 21 18 16 15 15 15 16 19 22 25 27 30 33 35 37 39 42 46 50 55 58 60 60 59 58 57 57 56 55 55 54 54 54 53 52 52 51 50 50 50 49 49 49 50 50 51 52 53 55 57 57 58 60 59 58 60 61 61 62 62 61 61 61 61 61 61 61 62 62 62 62 62 62 62 62 62 62 61 60 59 57 56 56 57 57
Wind_Direction
269 269 268 268 269 269 269 269 270 270 270 270 270 269 269 268 267 265 264 262 261 259 258 257 256 255 254 254 253 253 253 253 253 253 252 252 252 252 252 251 251 250 250 250 250 250 250 250 250 250 250 250 250 250 250 250 251 251 252 252 252 252 253 253 253 253 254 254 254 255 255 255 255 256 257 258 258 259 259 259 260 261 261 262 263 264 265 265
269 269 269 269 269 269 269 270 270 270 271 270 270 269 268 267 266 265 263 262 261 259 258 257 256 255 254 253 253 252 252 252 252 252 252 252 252 251 251 251 251 250 250 250 249 249 250 250 250 250 250 250 250 250 250 251 251 251 252 252 252 253 253 254 254 254 255 255 255 256 256 256 256 256 257 258 258 259 259 259 260 261 262 263 264 265 265 266
269 269 269 269 270 270 270 271 271 271 271 271 270 269 267 266 265 264 263 262 261 260 259 257 256 255 254 253 252 252 251 251 251 251 251 251 251 251 251 250 250 250 249 249 249 249 249 250 250 249 249 250 250 250 250 251 251 251 252 252 253 253 254 254 254 255 255 256 256 256 257 257 257 257 257 258 258 259 260 260 260 261 262 263 264 265 265 266
270 270 270 270 271 271 272 272 272 272 271 270 269 268 267 265 264 264 263 262 261 260 259 258 257 256 254 253 252 251 251 250 250 250 250 250 250 250 250 250 250 249 249 249 249 249 249 249 249 249 249 249 249 250 250 251 251 251 251 252 253 253 254 254 254 255 255 256 257 257 257 258 258 258 258 259 259 259 260 261 261 262 263 264 264 265 266 267
271 271 271 272 272 273 273 273 273 272 271 270 268 267 266 265 265 264 263 263 262 261 260 259 257 256 255 253 252 251 250 249 249 249 249 249 249 249 249 249 249 249 248 248 248 248 248 248 248 248 248 248 249 249 250 250 251 251 251 252 252 253 254 254 254 255 255 256 257 257 258 258 259 259 259 260 261 261 261 262 262 263 264 264 265 266 267 268
273 273 273 273 274 274 274 274 273 271 270 269 268 267 266 266 266 265 264 264 263 262 260 259 257 256 255 253 252 251 250 249 248 248 247 247 248 248 248 248 248 248 248 248 247 247 247 247 248 248 248 248 248 248 249 250 250 251 251 251 252 253 253 254 254 255 255 256 256 257 258 258 259 260 260 261 262 263 263 263 264 264 264 265 265 266 267 268
274 274 274 275 275 275 274 274 272 271 270 268 268 267 267 267 267 266 266 265 263 262 260 259 257 256 254 253 252 251 250 249 248 247 246 246 246 247 247 247 247 247 247 247 247 247 246 247 247 247 247 247 247 247 248 249 250 250 251 251 252 252 253 253 254 254 255 255 256 257 258 259 260 261 261 262 263 264 264 265 265 265 265 265 266 267 268 269
275 275 275 275 275 275 274 273 271 270 269 268 268 268 268 268 268 267 267 265 263 262 260 259 257 256 255 253 252 251 250 249 247 247 246 245 245 245 246 246 246 246 246 246 246 246 246 246 246 247 247 247 247 247 247 248 249 250 250 251 251 252 252 253 253 253 254 255 255 257 258 260 261 261 262 262 263 264 264 265 265 266 266 266 267 268 268 268
276 276 276 276 275 274 273 272 271 270 269 269 268 268 268 268 269 268 267 265 263 262 261 259 258 257 255 254 252 251 250 249 247 247 246 245 244 244 244 244 245 245 245 245 245 245 245 245 246 246 246 246 246 246 247 248 248 249 250 250 251 251 251 252 252 253 254 254 256 257 258 259 261 262 262 262 263 264 265 265 266 266 266 267 267 268 268 268
276 276 276 275 274 273 272 271 270 270 270 269 269 269 269 269 269 268 266 265 263 262 261 260 259 257 256 254 253 251 249 248 247 246 245 245 244 243 243 243 243 244 244 244 244 245 245 245 245 245 245 245 245 245 246 247 248 249 249 249 250 250 251 251 252 253 254 255 256 257 258 259 260 261 262 262 263 264 264 265 265 266 266 267 268 268 268 268
275 275 275 274 273 272 271 270 270 270 270 270 270 270 270 270 270 268 266 265 264 263 262 261 259 257 256 254 253 251 249 248 247 246 245 245 244 243 242 242 242 242 243 243 244 244 244 244 243 243 243 244 244 244 245 246 248 249 249 250 250 251 251 252 253 254 254 255 256 257 258 259 260 261 262 262 263 264 264 264 265 265 266 267 267 267 267 268
274 274 274 273 272 271 271 270 270 271 271 271 271 271 272 272 270 268 267 267 266 265 263 261 259 257 256 254 252 250 248 247 247 246 245 244 243 242 242 241 241 241 242 243 243 243 243 243 243 243 243 243 244 244 245 247 248 249 250 250 251 251 251 252 253 254 255 256 256 257 258 259 260 260 261 262 263 263 263 264 264 265 266 267 267 267 268 269
273 273 272 272 271 270 270 271 271 271 272 272 272 272 273 272 271 269 268 268 267 266 264 261 259 257 255 253 251 250 248 247 246 246 245 244 243 242 241 241 241 241 241 242 242 242 242 242 243 243 243 243 244 245 246 247 248 249 250 250 251 252 252 253 254 255 256 256 257 257 258 259 259 260 261 262 262 262 263 263 264 265 266 266 267 268 268 269
271 271 271 271 270 270 270 271 271 272 272 273 273 273 274 273 272 270 270 269 269 266 264 261 259 257 255 253 251 250 248 247 246 245 244 243 243 242 241 241 240 240 240 241 241 241 242 242 243 243 244 244 244 245 245 246 248 249 250 250 251 252 252 253 254 255 256 256 257 258 259 259 259 260 260 260 261 262 262 263 264 265 266 266 267 268 268 269
271 271 271 270 270 271 271 271 272 272 273 274 274 274 275 274 273 272 271 271 269 267 264 261 259 257 254 253 251 249 248 246 245 244 243 243 242 241 241 240 240 239 240 240 241 241 242 242 243 243 244 244 244 245 245 246 248 249 250 250 251 252 252 253 253 254 255 256 257 258 258 259 259 259 259 260 261 262 263 263 264 265 265 266 266 267 268 269
270 271 271 271 271 271 272 272 272 273 274 274 274 275 276 275 274 273 273 272 270 267 263 260 258 256 254 252 251 249 247 246 244 243 243 242 241 241 240 240 240 239 240 240 240 241 241 242 243 243 244 244 245 245 245 246 248 249 250 251 251 252 252 253 253 254 255 256 257 257 258 258 258 258 258 259 260 261 262 263 264 264 265 265 266 267 267 268
270 271 271 271 271 272 272 273 273 274 274 274 275 275 276 276 275 274 274 274 271 267 263 260 258 256 254 252 250 248 247 245 244 243 242 241 241 241 240 240 239 239 239 240 240 241 241 242 243 243 244 245 245 245 246 246 247 248 249 251 251 252 253 253 253 254 255 255 256 256 257 257 258 258 258 259 260 261 262 263 264 264 265 265 266 267 267 267
270 270 270 271 272 273 273 273 273 274 274 274 275 276 277 277 276 275 275 274 271 266 262 259 257 256 254 252 250 248 246 245 244 242 242 241 241 240 240 239 239 239 239 240 240 241 242 242 243 243 243 244 244 245 245 246 247 249 250 251 252 252 252 253 253 253 253 254 254 255 256 257 258 258 259 260 261 262 262 263 263 264 264 265 266 267 267 268
270 270 270 271 272 273 273 273 274 274 274 274 274 276 277 278 277 276 275 273 270 265 262 259 258 256 254 253 251 248 246 245 243 242 242 241 240 240 239 239 239 239 239 240 240 241 241 242 242 242 243 243 244 245 246 247 248 249 250 250 251 251 252 252 252 253 253 253 253 254 256 257 258 259 260 261 262 262 262 263 263 264 265 266 267 268 268 268
269 269 270 271 272 273 273 274 274 274 274 274 274 275 278 278 277 275 275 273 270 266 262 260 258 256 255 253 251 249 246 245 243 241 241 240 239 239 239 238 238 239 239 240 240 240 241 241 242 242 243 244 245 245 246 246 247 248 248 249 250 251 251 252 252 253 253 253 254 254 255 257 259 260 261 261 262 262 262 263 264 265 266 266 267 267 267 268
269 270 270 271 272 273 273 274 274 274 274 274 274 275 277 278 276 275 275 274 271 267 263 261 259 256 255 253 251 249 247 244 242 241 240 239 238 238 238 238 238 238 239 239 239 240 240 240 241 242 243 243 243 244 244 244 245 246 247 248 249 250 251 251 252 253 253 254 254 254 255 257 259 260 261 261 261 262 263 264 264 265 265 266 266 266 267 266
269 269 270 270 272 273 273 274 274 274 274 274 274 275 277 277 276 275 275 275 272 269 265 261 259 256 255 253 251 249 246 244 242 240 239 238 237 237 238 238 238 238 238 238 239 239 240 240 241 242 241 241 242 242 243 243 244 245 246 247 248 249 250 251 252 253 254 254 254 255 256 257 258 260 260 260 261 262 263 263 264 265 265 265 265 265 265 265
269 269 269 270 272 273 274 274 274 274 274 274 274 274 276 277 276 275 274 274 273 270 266 262 259 257 255 253 251 249 246 243 241 239 238 237 236 236 237 237 237 238 238 238 239 240 240 241 241 240 240 241 241 242 242 243 243 244 245 246 247 249 250 251 252 253 253 254 255 255 256 257 258 259 260 260 261 261 262 263 264 264 264 264 264 264 264 265
269 269 270 270 271 273 273 273 274 274 274 273 273 273 275 276 275 274 274 274 273 271 267 263 260 257 255 253 251 249 247 243 240 238 237 236 236 236 236 237 237 238 238 239 240 240 240 240 240 240 240 241 241 241 242 242 242 243 244 245 247 248 250 251 251 252 252 253 255 255 256 257 257 258 259 260 260 261 262 262 263 263 263 263 263 264 264 264
270 270 270 271 271 272 273 273 272 272 273 273 272 272 273 274 274 273 272 272 271 271 269 264 260 257 255 254 252 250 248 244 241 239 237 236 236 236 236 236 236 237 238 239 240 240 240 239 240 240 240 240 240 240 241 241 242 243 244 245 246 247 249 249 250 251 252 253 254 255 256 256 257 257 258 259 260 260 260 261 261 261 262 262 262 263 263 263
270 271 270 271 271 271 272 272 271 271 271 271 271 271 271 272 272 272 271 271 270 270 269 265 260 257 255 253 252 250 247 244 241 239 238 237 236 236 235 235 236 237 238 238 239 239 239 239 239 240 240 240 240 240 240 241 241 242 243 244 245 246 247 248 249 250 251 252 253 254 255 256 256 257 257 258 259 259 260 259 259 259 260 260 260 261 261 261
268 270 271 271 271 271 271 271 270 270 269 269 269 269 268 269 271 271 270 270 269 269 269 266 260 257 256 253 251 249 248 245 242 239 237 236 236 235 235 236 236 236 237 237 238 238 239 240 240 240 240 240 240 240 241 241 241 242 243 244 245 245 246 246 247 249 250 251 253 253 254 256 257 256 257 257 258 259 259 258 258 258 258 259 259 259 259 259
266 269 270 271 270 270 269 269 269 268 267 267 267 267 266 267 268 269 268 268 267 266 266 265 261 257 255 253 250 248 247 245 242 239 237 236 235 235 234 235 235 235 235 236 236 237 238 239 239 239 239 239 239 240 240 240 241 242 243 244 244 244 244 245 246 247 249 251 253 253 254 256 257 256 256 256 257 258 259 259 259 258 258 258 258 258 258 257
264 267 269 270 270 269 268 267 267 267 265 264 264 265 264 264 266 268 267 266 264 263 263 263 261 257 254 253 250 247 245 244 242 239 237 236 235 234 234 234 234 234 235 234 235 235 236 237 237 238 238 239 239 239 239 240 241 242 242 243 243 243 243 244 245 246 248 250 252 253 253 255 257 256 255 255 254 254 254 256 257 257 258 258 257 257 257 257
263 266 268 270 269 268 267 266 265 265 264 263 262 263 263 263 264 267 267 264 261 260 260 260 260 258 255 252 250 247 244 243 242 239 236 236 235 234 234 234 234 234 234 234 234 234 235 235 236 237 237 238 238 239 239 240 240 241 242 242 242 242 243 243 244 246 247 249 251 252 251 253 256 256 254 254 253 252 252 253 255 255 256 257 256 256 256 257
263 265 268 269 268 267 266 266 264 263 263 263 262 262 263 262 263 265 264 261 259 258 258 258 257 257 255 253 250 248 244 242 241 239 236 236 236 235 234 233 233 233 233 233 232 233 234 234 235 236 237 238 239 240 240 241 241 242 242 243 243 243 243 243 245 246 248 248 249 250 249 252 256 256 255 255 255 255 255 255 256 256 256 256 255 254 255 255
263 265 267 268 268 266 265 265 263 262 262 262 262 262 262 262 263 263 261 259 258 257 256 256 255 255 255 254 251 248 245 242 240 239 236 236 236 236 235 234 233 233 234 233 233 233 233 234 235 236 237 239 239 240 240 241 241 241 242 243 243 243 243 243 245 246 247 247 249 250 249 250 255 256 256 257 257 257 257 256 256 256 256 256 255 254 254 254
264 265 266 267 267 265 264 263 263 262 261 260 260 260 260 261 261 259 257 258 257 256 255 254 254 254 254 254 253 250 247 243 241 239 236 236 236 236 236 235 235 235 235 235 234 234 234 235 236 237 237 238 239 240 240 241 241 241 242 243 243 244 244 244 245 245 246 247 248 249 249 251 254 256 257 257 257 257 256 256 256 255 255 255 255 254 254 255
264 265 265 265 265 264 263 262 262 262 260 259 259 259 259 260 257 255 255 256 255 254 253 253 253 253 252 253 252 250 248 245 242 239 237 236 236 236 235 235 235 235 235 235 234 234 234 235 236 236 237 238 238 239 239 240 241 241 241 242 243 244 243 243 243 244 246 248 248 248 250 252 254 255 256 255 256 256 256 255 255 255 255 255 255 255 255 256
264 264 264 264 264 263 262 261 261 261 260 259 258 257 258 256 253 253 254 254 254 252 252 251 251 251 251 251 251 250 248 245 243 240 238 236 236 235 235 234 234 235 235 236 235 234 234 235 236 236 237 238 238 239 240 241 242 241 241 242 243 243 243 243 244 245 247 248 249 249 250 251 253 254 254 254 254 254 255 255 255 255 255 255 256 256 256 256
264 264 263 262 263 262 262 261 260 260 260 259 258 256 255 252 251 252 254 253 252 250 249 249 249 249 250 250 250 249 247 245 243 242 239 237 236 236 235 234 234 235 235 236 235 234 234 235 236 237 237 238 240 240 241 242 243 243 243 243 243 244 244 244 245 246 247 249 250 249 249 250 251 253 253 253 253 253 253 254 254 255 255 256 256 256 256 256
264 264 263 262 261 261 261 260 259 258 258 258 257 255 252 250 250 251 253 252 250 247 246 246 246 248 248 248 248 247 247 246 244 243 240 237 236 236 236 235 234 235 235 235 236 235 234 235 235 236 237 238 239 240 240 242 243 243 243 244 244 244 245 245 246 246 247 248 249 249 249 249 250 251 251 251 251 252 252 253 254 255 256 256 257 256 256 255
265 264 263 263 262 261 260 260 259 258 257 256 256 253 250 249 249 249 250 250 248 245 244 244 244 245 247 247 247 246 246 246 244 243 241 238 236 236 236 236 234 234 234 234 236 236 236 236 236 235 236 237 237 238 239 239 241 241 241 242 244 244 244 245 245 245 246 247 248 248 248 249 250 250 250 250 251 251 252 253 254 255 256 256 256 255 255 254
267 265 264 263 262 261 260 259 258 257 256 255 253 251 249 248 247 247 248 248 247 245 243 242 242 243 244 245 246 245 244 244 244 243 241 239 237 236 236 236 236 235 235 234 235 236 236 237 237 236 236 237 237 238 238 238 239 240 241 241 243 243 244 244 244 244 245 246 247 247 247 248 248 248 249 250 250 251 252 253 253 254 255 255 255 255 254 253
268 267 266 264 262 261 260 259 258 256 255 253 251 249 248 248 247 246 247 247 247 245 243 242 241 241 243 244 244 244 243 243 243 242 240 239 238 236 236 236 236 237 236 235 235 236 236 237 238 237 236 237 237 238 238 239 239 240 241 241 242 242 243 244 244 244 245 246 246 246 246 246 246 247 247 248 249 250 251 251 252 253 254 254 254 253 253 252
269 268 266 265 262 260 259 258 257 255 253 251 250 249 248 248 247 245 245 246 246 245 243 241 240 240 241 242 243 243 242 242 242 242 241 238 237 236 235 235 235 236 238 237 236 237 237 237 238 237 236 237 237 237 238 238 239 240 240 241 241 242 243 243 244 244 245 245 245 246 245 245 246 246 246 247 248 248 248 248 249 250 251 251 251 250 249 249
270 268 266 265 263 261 259 257 256 255 252 249 248 247 246 246 246 244 243 243 244 243 242 240 238 238 239 240 241 240 241 241 240 241 240 239 236 235 234 235 234 234 236 237 237 237 237 238 238 238 237 238 238 238 238 238 239 239 239 241 242 242 243 243 244 243 243 243 244 244 243 244 246 247 246 246 247 247 247 246 247 248 248 248 247 248 247 247
273 270 268 266 264 263 260 258 255 254 252 249 247 246 245 245 245 244 242 242 242 241 241 239 237 236 236 238 239 238 239 239 240 240 240 239 238 235 235 235 235 233 234 236 236 237 237 238 239 239 239 239 239 239 239 239 240 240 240 241 241 242 242 243 243 242 242 242 242 242 242 243 245 246 246 246 246 246 246 246 245 246 248 248 247 247 247 247
276 274 272 269 266 264 262 260 257 254 252 249 247 245 244 244 244 243 241 240 240 239 239 238 237 235 235 236 237 237 237 238 239 239 239 240 239 238 236 235 235 235 234 235 235 236 237 237 237 238 239 239 240 241 241 241 242 242 241 241 240 240 241 241 241 242 243 242 241 242 243 244 245 246 246 246 246 246 246 245 245 246 247 248 247 246 246 246
280 278 276 273 269 266 263 261 258 255 252 249 247 245 244 243 243 242 240 239 237 237 237 237 236 235 234 234 235 236 236 237 238 239 239 239 239 239 238 236 236 236 236 235 235 236 238 238 237 237 238 239 239 240 241 241 241 241 241 241 241 240 240 240 240 241 242 242 241 242 243 244 245 246 247 247 247 247 247 245 245 245 246 248 248 247 247 247
284 283 281 278 274 269 264 261 259 256 253 249 247 245 243 242 241 241 239 237 236 235 235 235 235 234 234 233 234 234 235 236 237 238 238 238 238 239 239 238 237 236 236 236 236 236 238 238 238 238 238 239 239 240 240 240 241 242 243 243 243 242 242 241 241 241 242 243 243 244 244 245 247 248 249 249 249 249 249 248 247 247 248 249 250 250 249 249
289 287 285 282 278 273 267 262 259 256 253 250 247 244 242 240 239 239 238 236 234 233 233 233 234 234 234 233 233 233 234 235 237 238 238 239 238 238 239 240 239 238 237 237 237 237 237 238 238 238 238 239 239 240 241 241 241 242 242 243 243 243 242 242 242 242 243 244 245 246 246 247 249 250 250 251 251 251 251 251 251 251 251 251 252 252 252 251
295 293 289 285 281 277 272 266 261 257 253 249 246 243 241 239 238 237 237 235 233 232 232 232 233 233 233 233 233 233 233 234 236 237 238 238 239 238 239 240 241 240 239 238 238 238 238 238 239 240 240 240 239 239 240 240 241 241 241 242 243 242 241 241 242 242 242 243 244 246 246 247 249 250 251 251 252 252 252 252 252 252 252 253 253 254 254 253
303 301 296 291 285 280 275 270 264 258 253 248 245 243 241 239 238 236 235 234 233 232 231 232 232 233 233 233 233 233 233 234 235 236 237 238 239 239 239 240 241 241 240 240 239 239 238 238 239 240 241 242 242 241 240 239 240 241 241 241 242 243 243 242 242 243 243 243 244 245 246 247 248 249 250 251 251 252 252 253 253 254 254 255 255 256 257 257
312 310 307 301 293 284 278 273 266 259 253 248 244 240 238 238 237 236 234 233 233 232 231 231 232 232 233 233 233 233 233 234 234 235 237 238 238 239 239 239 239 240 240 240 240 240 240 239 239 239 241 242 243 243 243 241 240 241 241 242 243 244 245 245 244 244 244 245 245 246 246 247 248 249 250 251 252 253 254 254 255 256 257 258 259 260 261 261
317 316 314 310 302 292 283 276 268 259 251 244 239 235 233 233 233 233 232 232 231 231 230 230 231 232 232 232 233 233 233 234 234 235 236 237 238 239 239 239 239 240 240 241 241 242 242 242 241 240 241 242 244 245 245 245 243 242 243 244 244 245 245 245 245 245 245 246 246 247 248 249 250 251 252 253 254 255 256 256 257 259 260 261 263 265 266 266
323 323 322 319 312 302 292 281 269 255 245 239 235 232 230 230 230 230 230 230 229 229 229 229 230 231 232 232 232 233 233 233 233 234 235 236 237 238 239 239 240 240 241 241 242 243 244 245 244 243 243 244 246 247 247 247 247 246 246 246 247 247 247 247 247 247 247 247 248 248 249 251 252 252 253 254 255 256 257 258 259 260 262 264 267 268 269 268